517  
ASUS46 KPDT 191125  
RWRPDT  
PENDLETON REGIONAL WEATHER ROUNDUP  
NATIONAL WEATHER SERVICE PENDLETON OREGON  
400 AM PDT FRI SEP 19 2014  
 
NOTE: FAIR INDICATES FEW OR NO CLOUDS BELOW 12,000 FEET WITH NO  
SIGNIFICANT WEATHER AND/OR S TO VISIBILITY
.  
 
# INDICATES UNOFFICIAL STATION AND DATA  
 
WAZ520-191210-  
EAST SLOPES OF WASHINGTON CASCADES  
 
CITY SKY/WX TMP DP RH WIND PRES REMARKS
 
#BUMPING DAM N/A 54 N/A N/A S2 N/A  
#CLE ELUM HS N/A 58 51 77 NW3 29.95R  
#CLE ELUM 2NW N/A 58 50 75 CALM N/A  
#CLE ELUM LAKE N/A 55 51 86 CALM 29.92R  
#CLIFFDEL 2NW N/A 55 49 80 W6 N/A  
#GLENWOOD N/A 44 42 93 CALM 29.96R  
#MANASTASH CYN N/A 53 45 74 CALM 29.97R  
#NELSON 3SW N/A 57 48 72 NE2 30.11R  
#NILE N/A 55 49 80 CALM 29.21R  
#RONALD 2NW N/A 58 50 75 CALM 29.90R  
#TEANAWAY 4NE N/A 57 52 83 CALM N/A  
#TROUT LAKE 1NE N/A 57 50 77 CALM 29.96R  

 
 
WAZ521-191210-  
SIMCOE HIGHLANDS  
 
CITY SKY/WX TMP DP RH WIND PRES REMARKS
 
#BICKLETON HS N/A 56 39 53 NW7 30.06S  
#CENTERVILLE 4W N/A 60 50 69 W8 29.77R  
#CENTERVILLE 1SWN/A 57 50 77 W10 29.93R  
#GOLDENDALE N/A 54 50 86 NW3 N/A  
#GOLDENDALE 1NE N/A 54 47 77 S2 N/A  
#GOLDENDALE 1S N/A 53 48 83 CALM 29.98R  
#GOODNOE HILLS N/A 61 53 75 NW13 29.91S  
#LYLE 6NE N/A 60 53 78 CALM 29.93S  

 
 
WAZ026-191210-  
KITTITAS VALLEY  
 
CITY SKY/WX TMP DP RH WIND PRES REMARKS
 
ELLENSBURG AP MOCLDY 62 51 67 W16 29.96S  
#ELLENSBURG CWU N/A 61 52 72 NW15 29.86S  
#ELLENSBURG 3NE N/A 60 52 75 NW8 29.96R  
#ELLENSBURG N/A 64 55 73 W5 N/A  
#KITTITAS 3S N/A 60 52 75 W3 29.89R  
#THORP 6N N/A 58 50 75 NW18G35 29.92R  

 
 
WAZ027-191210-  
YAKIMA VALLEY  
 
CITY SKY/WX TMP DP RH WIND PRES REMARKS
 
SUNNYSIDE AP N/A 48 48 100 CALM 29.95R  
YAKIMA AIRPORT PTCLDY 52 47 83 W3 29.96R  
YAKIMA-VAGABOND PTCLDY 59 48 67 SW5 29.97R  
#COWICHE 1N N/A 60 49 67 CALM 30.14R  
#DONALD 2NE N/A 59 48 67 CALM 30.28R  
#GRANDVIEW N/A 54 48 80 CALM 29.94R  
#MABTON N/A 57 49 75 CALM 29.94R  
#MOXEE 2E N/A 55 46 72 CALM 29.92S  
#NACHES 2SW N/A 59 51 75 W2 29.89S  
#OUTLOOK DOT N/A N/A N/A N/A NE2 N/A  
#SELAH 8E N/A 58 47 67 S2 N/A  
#TERRACE HTS N/A 57 49 75 CALM 29.88S  
#TOPPENISH N/A 55 50 83 CALM 29.84R  
#WAPATO 4NE N/A 59 48 67 CALM 30.28R  
#WEST VALLEY N/A 55 49 80 CALM 29.91R  
#W YAKIMA N/A 62 51 67 W3 29.92R  
#WHITE SWAN 5E N/A 52 47 83 CALM 29.92S  
#WILEY CITY 3W N/A 54 49 83 CALM 29.96R  

 
 
WAZ028-191210-  
LOWER COLUMBIA BASIN...WASHINGTON  
 
CITY SKY/WX TMP DP RH WIND PRES REMARKS
 
PASCO PTCLDY 63 54 72 S12 29.94S  
PROSSER AWOS N/A 52 48 86 W2 29.98R  
#BASIN CITY 5SW N/A 61 52 72 CALM 29.93S  
#BENTON CITY N/A 58 49 72 NW3 29.83R  
#CONNELL 5N N/A 55 50 83 CALM 29.90R  
#CONNELL 5NW N/A 55 51 86 CALM 29.86R  
#ELTOPIA N/A 58 53 83 CALM 29.89R  
#ELTOPIA 6NW N/A 56 52 86 S3 28.91R  
#KENNEWICK 3S N/A 60 53 78 SW3 29.91R  
#PATERSON N/A 62 55 78 CALM 29.92R  
#PROSSER N/A 61 47 60 CALM 29.92R  
#SAGEMOOR 2W N/A 57 53 86 CALM 29.77R  
#TOUCHET 2S N/A 66 53 63 SW16G25 29.89R  
#WEST PASCO N/A 61 53 75 S1 29.93R  

 
 
WAZ029-191210-  
FOOTHILLS OF THE BLUES...WASHINGTON  
 
CITY SKY/WX TMP DP RH WIND PRES REMARKS
 
WALLA WALLA AP MOCLDY 63 50 62 S12 29.99R  
#DAYTON SCHOOL N/A 61 45 56 NE3 29.98R  
#LOWDEN 2SE N/A 65 53 65 W3 29.93R  
#PLEASANT VIEW 1N/A 56 50 80 S9 29.94R  
#PRESCOTT N/A 62 51 67 CALM 29.93R  
#SUDBURY N/A 56 N/A N/A CALM N/A  
#WHITMAN COLLEGEN/A 62 51 67 SE3 29.99R  
#WAITSBURG 8N N/A 59 41 51 S5 29.91R  
#WALLA WALLA 5E N/A 62 50 65 W7 N/A  
#WALLA WALLA U N/A 64 52 65 CALM 29.93R  
#WHITMAN MISSIONN/A 64 53 67 CALM 29.95S  

 
 
WAZ030-191210-  
BLUE MOUNTAINS...WASHINGTON  
 
CITY SKY/WX TMP DP RH WIND PRES REMARKS
 

 
 
ORZ009-041-WAZ024-191210-  
COLUMBIA RIVER GORGE  
 
CITY SKY/WX TMP DP RH WIND PRES REMARKS
 
HOOD RIVER AP MOCLDY 64 55 73 NW8 30.00S  
THE DALLES AP CLOUDY 65 54 68 SW5 29.98R  
#ARLINGTON AIRPON/A 60 52 75 W3 N/A  
#ARLINGTON HS N/A 64 52 65 W1 29.86R  
#MARYHILL 2W N/A 67 53 61 S14 N/A  
#MOSIER 1S N/A 64 48 56 CALM 30.00S  
#MURDOCK N/A 68 58 70 NW8 29.98S  
#RUFUS DOT N/A N/A N/A N/A SW5 N/A  
 

 
 
ORZ510-191210-  
NORTH CENTRAL OREGON  
 
CITY SKY/WX TMP DP RH WIND PRES REMARKS
 
#CHENOWITH 1W N/A 59 53 80 NW17 N/A  
#COW CYN RST AREN/A 55 49 80 SW2 N/A  
#DUFUR 9E N/A 57 52 83 W5 30.01R  
#GRASS VALLEY N/A 47 46 96 S1 N/A  
#GRASS VALLEY 1SN/A 52 48 86 CALM 30.00R  
#KENT DOT N/A 52 47 83 SW2 N/A  
#MAUPIN SCHOOL N/A 56 49 77 CALM 28.89R  
#MORO SCHOOL N/A 56 54 93 CALM 30.03R  
#SHANIKO 5WSW N/A 54 45 71 SW6 N/A  
#SHANIKO 4NW N/A 54 48 80 W7 30.06S  
#TYGH VALLEY 2NEN/A 52 47 83 CALM 29.98R  
#WAPANITIA AIRPON/A 56 50 80 CALM 29.97R  
#WASCO DOT N/A 60 55 84 W10 N/A  
#WASCO 5NE N/A 59 52 78 W7 29.93S  

 
 
ORZ511-191210-  
CENTRAL OREGON  
 
CITY SKY/WX TMP DP RH WIND PRES REMARKS
 
BEND AIRPORT PTCLDY 48 46 93 S3 30.08S  
MADRAS AIRPORT PTCLDY 52 46 80 CALM 30.06S  
REDMOND AIRPORT PTCLDY 46 44 93 CALM 30.06R  
#BEND 6E N/A 49 45 86 CALM 29.91S  
#BEND 1SW N/A 45 42 89 W1 N/A  
#BEND-AWBREY N/A 54 50 86 N1 29.94S  
#BEND-KIM LN N/A 49 47 93 CALM 30.04S  
#CROOKED RVR RANN/A 52 49 89 N13 29.96R  
#CULVER N/A 54 50 86 S2 30.01S  
#LAKE BILLY CHINN/A 54 42 64 CALM 30.10R  
#POWELL BUTTE 3EN/A 48 46 93 SE1 N/A  
#POWELL BUTTE N/A 52 46 80 SE2 29.70S  
#PRINEVILLE 3N N/A 47 45 93 CALM 29.93R  
#WARM SPRINGS N/A 55 49 80 CALM 30.00S  
 
 
ORZ509-191210-  
EAST SLOPES OF OREGON CASCADES  
 
CITY SKY/WX TMP DP RH WIND PRES REMARKS
 
#BLUE BOX PASS N/A 52 1 12 CALM N/A  
#CAMP SHERMAN N/A 54 47 77 CALM 29.97R  
#LA PINE DOT N/A 42 42 100 S2 N/A  
#LA PINE 4NW N/A 42 39 89 CALM 30.00F  
#LAVA BUTTE DOT N/A 48 47 96 W7 N/A  
#SISTERS AIRPOR N/A 47 47 100 N1 30.04S  
#SISTERS ODOT N/A 45 N/A N/A CALM N/A  
#SISTERS 3N N/A 47 43 86 CALM N/A  
#SUNRIVER N/A 46 44 93 CALM 29.86R  
#SUNRIVER AP N/A 45 43 93 CALM 29.92R  
#SUTTLE LK DOT N/A 50 49 96 W24G35 N/A  
#TUMALO 3W N/A 52 49 89 S2 29.84S  
#WANOGA BUTTE D N/A 51 37 59 CALM N/A  
 

 
 
ORZ044-191210-  
LOWER COLUMBIA BASIN...OREGON  
 
CITY SKY/WX TMP DP RH WIND PRES REMARKS
 
HERMISTON PTCLDY 61 51 70 W6 29.96R  
#BOARDMAN SCHOOLN/A 63 53 70 SW1 29.94R  
#BOARDMAN 3W N/A 62 54 75 W8 29.68R  
#BOARDMAN 8SW N/A 60 53 78 SW5 29.94R  
#ECHO 8SW N/A 65 50 58 W7 29.94R  
#IONE SCHOOL N/A 63 49 60 S7 29.98S  
#IRRIGON 4NW N/A 62 54 75 S2 N/A  
#UMATILLA N/A 59 50 72 CALM 29.93S  

 
 
ORZ507-191210-  
NORTHERN FOOTHILLS OF THE BLUES  
 
CITY SKY/WX TMP DP RH WIND PRES REMARKS
 
PENDLETON AIRPT PTCLDY 61 49 65 SW9 29.99R  
#ADAMS 3WNW N/A 51 44 77 CALM 29.95R  
#ATHENA N/A 58 49 72 CALM 29.96R  
#HELIX SCHOOL N/A 51 45 80 CALM 29.94R  
#HELIX 3N N/A 54 47 77 S1 29.97R  
#HELIX 6SW N/A 55 47 74 CALM 29.99R  
#HOLDMAN 5SE N/A 56 49 77 CALM 29.99R  
#HOLDMAN 6E N/A 58 49 72 N6 29.76R  
#M-F GROVE ELEM N/A 62 47 58 S2 29.98R  
#M-FREEWATER 5SEN/A 64 50 60 CALM 29.99R  
#PENDLETON DNTN N/A 60 45 58 CALM 29.99S  
#PDT AQUATIC CTRN/A 62 45 54 CALM 30.00S  
#PDT SUNRIDGE N/A 59 49 69 CALM 30.00S  
#PENDLETON 7NW N/A 61 50 67 SW3 25.55F  
#PILOT ROCK N/A 57 45 64 CALM 30.02S  
#TUTUILLA N/A 59 49 69 S2 29.97R  
#UMAPINE 2E N/A 64 52 65 SW2 29.94R  
#WESTON SCHOOL N/A 60 47 62 NW6 29.97R  
 

 
 
ORZ508-191210-  
SOUTHERN FOOTHILLS OF THE BLUES  
 
CITY SKY/WX TMP DP RH WIND PRES REMARKS
 
LEXINGTON MOCLDY 59 50 72 S5 30.03R  
#AJAX N/A 57 46 67 W3 29.96S  
#CONDON SCHOOL N/A 53 48 83 CALM 30.00S  
#CONDON 5W N/A 53 47 80 W7 30.03R  
#FOSSIL SCHOOL N/A 50 45 83 CALM 30.02  
#HEPPNER EOC N/A 59 48 67 SW3 29.91R  
#HEPPNER 4NE N/A 55 48 77 SW2 29.94R  
#LEXINGTON 2SE N/A 59 49 69 CALM 29.98R  
#MIKKALO N/A 60 49 67 W5 30.01S  
#OLEX 4N N/A 62 52 70 SW15 29.97S  
#RUGGS 5NE N/A 53 48 83 S3 30.20S  
#RUGGS 2SW N/A 56 48 74 SW7 29.96R  
 

 
 
ORZ502-503-191210-  
BLUE MOUNTAINS  
 
CITY SKY/WX TMP DP RH WIND PRES REMARKS
 
MEACHAM CLOUDY 56 47 72 CALM 30.06S  
#BATTLE MTN DOT N/A 50 50 100 CALM N/A  
#HARDMAN 10S N/A 47 43 86 CALM 30.12S  
#HEPPNER 15SE N/A 52 47 83 W8 29.98R  
#LADD CYN SMT N/A 57 45 64 NW9 N/A  
#LADD CREEK ODOTN/A 59 50 72 NE7 N/A  
#N POWDER DOT N/A 56 52 86 NE15 N/A  
#PIKES PEAK N/A 54 48 80 SW22G29 27.99S  
#TOLLGATE N/A 48 45 89 S3 30.00R  
#TOLLGATE 9W N/A 53 48 83 S2 N/A  
#TROY SCHOOL N/A 65 49 56 CALM 29.79R  
#UKIAH N/A 49 46 89 CALM 30.01S  
#WESTON 4E N/A 55 48 77 S6 29.88R  

 
 
ORZ505-191210-  
JOHN DAY BASIN  
 
CITY SKY/WX TMP DP RH WIND PRES REMARKS
 
JOHN DAY MOCLDY 57 49 75 SW3 30.08R  
#JOHN DAY KJDY N/A 59 53 80 CALM 30.16R  
#MONUMENT HS N/A 60 47 62 CALM 30.03S  
#MT. VERNON 5SE N/A 54 48 80 CALM 30.03S  
#WINLOCK N/A 50 45 83 CALM 30.13R  

 
 
ORZ506-191210-  
OCHOCO AND JOHN DAY HIGHLANDS  
 
CITY SKY/WX TMP DP RH WIND PRES REMARKS
 
#BUCK CREEK DOT N/A 51 51 100 CALM N/A  
#HORSE RIDGE DO N/A 37 37 100 CALM N/A  
#KEYES SMT DOT N/A 49 47 93 NW5 N/A  
#PAULINA SCHOOL N/A 47 42 83 CALM 30.07R  
#PINE MTN OBS N/A 48 45 89 NW5 N/A  
#PRAIRIE CITY N/A 53 47 80 CALM 30.05R  
#SENECA 9NW N/A 44 42 93 CALM 29.93R  

 
 
ORZ049-191210-  
GRANDE RONDE VALLEY  
 
CITY SKY/WX TMP DP RH WIND PRES REMARKS
 
LA GRANDE CLOUDY 59 41 51 E3 30.04R  
#COVE N/A 59 50 72 CALM 29.96F  
#COVE SCHOOL N/A 59 49 69 CALM 30.03S  
#COVE 6NW N/A 57 47 69 CALM 29.97S  
#ELGIN 3N N/A 57 44 62 CALM 29.76R  
#ELGIN 1E N/A 59 46 62 CALM N/A  
#IMBLER SCHOOL N/A 58 47 67 SE3 30.00R  
#LADD CYN DOT N/A 59 48 67 CALM N/A  
#LA GRANDE ELEM N/A 60 48 64 N1 30.02R  
#UNION 1S N/A 58 49 72 CALM 29.84R  

 
 
ORZ050-191210-  
WALLOWA COUNTY  
 
CITY SKY/WX TMP DP RH WIND PRES REMARKS
 
#ENTERPRISE AP N/A 52 43 71 NE5 29.99R  
#ENTERPRISE HS N/A 52 47 83 CALM 30.06R  
#IMNAHA SCHOOL N/A 60 46 60 CALM 29.99R  
#IMNAHA 10S N/A 60 48 64 CALM 30.02R  
#JOSEPH 3N N/A 51 46 83 SE1 30.08R  
#JOSEPH 3W N/A 52 47 83 CALM 29.93R  
#LOSTINE N/A 47 43 86 CALM 29.72R  
#MT HOWARD 8000 N/A 44 37 76 SW1 30.19R  
#PROMISE 1S N/A 51 45 80 CALM 30.02R  
#SHEEP RDG 7000 N/A 46 37 71 CALM 29.85R  
#WALLOWA SCHOOL N/A 54 46 74 CALM 30.81S  
 

 
 
CLICK HERE TO GO TO PREVIOUS BULLETINS.

The Nexlab OR Page
The Nexlab WA Page Main Text Page